Location: Spruce Knob
(38.6995°N, 79.5330°W)
Time: 17:53:24
(UTC-04:00)

RS-15 - Visible Passes

Search period start: 31 March 2023 00:00
Search period end: 10 April 2023 00:00
Orbit: 1884 x 2161 km, 64.8° (Epoch: 30 March)

Date Brightness Start Highest point End Pass type
(mag) Time Alt. Az. Time Alt. Az. Time Alt. Az.
31 Mar 8.3 01:55:26 10° NNW 02:04:24 59° NW 02:04:24 59° NW visible
31 Mar 9.5 04:10:28 10° WNW 04:12:07 13° WNW 04:12:07 13° WNW visible
31 Mar 9.8 20:49:47 10° NW 20:57:48 19° N 21:05:41 10° NE visible
31 Mar 9.3 23:06:38 10° NNW 23:16:22 27° NNE 23:21:38 20° ENE visible
01 Apr 8.2 01:19:19 10° NNW 01:29:21 65° N 01:29:21 65° N visible
01 Apr 9.3 03:33:15 10° NW 03:37:05 20° WNW 03:37:05 20° WNW visible
01 Apr 9.8 20:11:59 10° WNW 20:20:29 20° NNW 20:28:52 10° NNE visible
01 Apr 9.5 22:30:16 10° NNW 22:39:19 23° NNE 22:46:38 13° ENE visible
02 Apr 8.2 00:43:15 10° NNW 00:54:22 60° NE 00:54:22 60° NE visible
02 Apr 9.0 02:56:31 10° NW 03:02:05 28° WNW 03:02:05 28° WNW visible
02 Apr 9.6 21:53:42 10° NNW 22:02:08 21° NNE 22:10:18 10° ENE visible
03 Apr 8.4 00:07:11 10° NNW 00:18:41 49° NE 00:19:23 48° ENE visible
03 Apr 8.7 02:20:02 10° NW 02:27:07 38° WNW 02:27:07 38° WNW visible
03 Apr 9.7 21:16:50 10° NW 21:24:50 19° N 21:32:36 10° NE visible
03 Apr 8.7 23:31:06 10° NNW 23:42:09 40° NE 23:44:26 37° ENE visible
04 Apr 8.4 01:43:44 10° NW 01:52:10 51° WNW 01:52:10 51° WNW visible
04 Apr 9.7 20:39:39 10° NW 20:47:28 18° N 20:55:06 10° NE visible
04 Apr 9.0 22:54:59 10° NNW 23:05:27 33° NE 23:09:31 27° ENE visible
05 Apr 8.1 01:07:33 10° NNW 01:17:15 66° NW 01:17:15 66° NW visible
05 Apr 9.5 03:22:48 10° WNW 03:25:00 14° WNW 03:25:00 14° WNW visible
05 Apr 9.8 20:02:07 10° NW 20:10:06 19° N 20:17:55 10° NE visible
05 Apr 9.2 22:18:46 10° NNW 22:28:35 27° NNE 22:34:38 18° ENE visible
06 Apr 8.0 00:31:26 10° NNW 00:42:22 73° NNE 00:42:22 73° NNE visible
06 Apr 9.3 02:45:29 10° NW 02:50:06 21° WNW 02:50:06 21° WNW visible
06 Apr 9.4 21:42:26 10° NNW 21:51:34 24° NNE 21:59:45 11° ENE visible
06 Apr 8.1 23:55:21 10° NNW 00:07:11 63° NE 00:07:30 62° ENE visible
07 Apr 8.9 02:08:42 10° NW 02:15:14 31° WNW 02:15:14 31° WNW visible
07 Apr 9.6 21:05:54 10° NNW 21:14:24 21° NNE 21:22:37 10° ENE visible
07 Apr 8.3 23:19:17 10° NNW 23:30:50 50° NE 23:32:39 47° ENE visible
08 Apr 8.6 01:32:12 10° NW 01:40:24 43° WNW 01:40:24 43° WNW visible
08 Apr 9.6 20:29:05 10° NNW 20:37:06 19° N 20:44:55 10° NE visible
08 Apr 8.6 22:43:13 10° NNW 22:54:20 41° NE 22:57:49 34° ENE visible
09 Apr 8.2 00:55:52 10° NW 01:05:34 58° WNW 01:05:34 58° WNW visible
09 Apr 8.9 22:07:06 10° NNW 22:17:39 34° NE 22:23:01 24° ENE visible
